Location: Laura�t
(43.9341°N, 0.2497°E)
Time: 00:23:11
(UTC+00:00)

Cosmos 1503 Rocket - Pass Details

Date: 03 March 2021
Orbit: 753 x 790 km, 74.0° (Epoch: 17 April)

Event Time Altitude Azimuth Distance (km) Brightness Sun altitude
Rises 18:29:15 0° 344° (NNW) 3,229 7.4 -7.8°
Reaches altitude 10° 18:31:45 10° 351° (N) 2,295 6.6 -8.3°
Maximum altitude 18:36:43 43° 63° (ENE) 1,050 4.3 -9.2°
Drops below altitude 10° 18:41:36 10° 135° (SE) 2,272 6.0 -10.1°
Sets 18:44:04 0° 142° (SE) 3,192 6.8 -10.5°
